Location: Tierra del Sol
(32.6128°N, 116.3319°W)
Time: 13:40:47
(UTC-08:00)

Envisat - Pass Details

Date: 10 October 2017
Orbit: 764 x 766 km, 98.2° (Epoch: 17 December)

Event Time Altitude Azimuth Distance (km) Brightness Sun altitude
Exits shadow 21:28:10 16° 318° (NW) 1,933 5.5 -40.3°
Drops below altitude 10° 21:29:18 10° 326° (NW) 2,306 6.0 -40.6°
Sets 21:31:50 0° 336° (NNW) 3,237 6.7 -41.1°
